This is the latest recevied weather packets stored in our database for station/object CT4TX-11. If no packets are shown the sender has not sent any weather packets the latest 10 day(s).
| Time | Temp. | Humidity | Pressure | Rain* | Wind** | Luminosity | Snow |
|---|---|---|---|---|---|---|---|
| 1788211271 | 28.33° C | 43% | 1008.4 hPa | - | - | - | - |
| 1788210386 | 28.89° C | 44% | 1008.4 hPa | - | - | - | - |
| 1788209470 | 28.89° C | 44% | 1008.4 hPa | - | - | - | - |
| 1788208570 | 28.89° C | 43% | 1008.3 hPa | - | - | - | - |
| 1788207670 | 28.89° C | 43% | 1008.2 hPa | - | - | - | - |
| 1788206770 | 28.89° C | 43% | 1008.1 hPa | - | - | - | - |
| 1788205869 | 28.89° C | 42% | 1007.9 hPa | - | - | - | - |
| 1788204969 | 29.44° C | 42% | 1007.6 hPa | - | - | - | - |
| 1788204069 | 30° C | 40% | 1007.4 hPa | - | - | - | - |
| 1788203169 | 30.56° C | 39% | 1007.3 hPa | - | - | - | - |
| 1788202269 | 31.11° C | 39% | 1007.1 hPa | - | - | - | - |
| 1788201368 | 30.56° C | 39% | 1007.1 hPa | - | - | - | - |
| 1788200468 | 30° C | 41% | 1007 hPa | - | - | - | - |
| 1788199575 | 30° C | 40% | 1006.9 hPa | - | - | - | - |
| 1788198668 | 30° C | 41% | 1007 hPa | - | - | - | - |
| 1788197768 | 30° C | 40% | 1006.9 hPa | - | - | - | - |
| 1788196867 | 30.56° C | 41% | 1006.9 hPa | - | - | - | - |
| 1788195966 | 30.56° C | 41% | 1006.9 hPa | - | - | - | - |
| 1788195066 | 30.56° C | 41% | 1006.8 hPa | - | - | - | - |
| 1788194165 | 30.56° C | 42% | 1006.7 hPa | - | - | - | - |
| 1788193264 | 30° C | 42% | 1006.7 hPa | - | - | - | - |
| 1788192364 | 30.56° C | 42% | 1006.8 hPa | - | - | - | - |
| 1788191470 | 30.56° C | 42% | 1006.8 hPa | - | - | - | - |
| 1788190569 | 30° C | 43% | 1006.8 hPa | - | - | - | - |
| 1788189669 | 30.56° C | 42% | 1006.9 hPa | - | - | - | - |
* Rain since midnight (hover to see other rain measurements)
** Current wind speed in m/s (hover to see current wind gust speed)